SCP
0 0 0 0 0 0 0 0 0 0 0 0 0 0 0 0 0 0 0 0 0 0 0 0 0 0 0 0 0 0 0 0 0 0 0 0 0 0 0 0 0 0 0 0 0 0 0 0 -0 0 -0 0 0 0
0 0 0 0 0 0 0 0 0 0 0 0 0 0 0 0 0 0 0 0 0 0 0 0 0 0 0 0 0 0 0 0 0 0 0 0 0 0 0 0 0 0 0 0 0 0 0 0 0 0 -0 0 0 0
0 0 0 0 0 0 0 0 0 0 0 0 0 0 0 0 0 0 0 0 -0 -0 0 0 0 0 0 0 0 0 0 0 0 0 0 0 0 0 0 0 0 0 0 0 0 0 0 0 0 0 0 0 0 0
0 0 0 0 0 0 0 0 0 0 0 0 0 0 0 0 0 0 0 0 0 0 0 0 0 0 0 0 0 0 0 0 0 0 0 0 0 0 0 0 0 0 0 0 0 0 0 0 0 0 0 0 0 0
0 0 0 0 0 0 0 0 0 0 0 0 0 0 0 0 0 0 0 0 0 0 0 0 0 0 0 0 0 0 0 0 0 0 0 0 0 0 0 0 0 0 0 0 0 0 0 0 0 0 0 0 0 0
0 0 0 0 0 0 0 0 0 0 0 0 0 0 0 0 0 0 0 0 0 0 0 0 0 0 0 0 0 0 0 0 0 0 0 0 0 0 0 0 0 0 0 0 0 0 0 0 0 0 0 0 0 0
0 0 0 0 0 0 0 0 0 0 0 0 0 0 0 0 0 0 0 0 -0 -0 0 0 0 0 0 0 0 0 0 0 0 0 0 0 0 0 0 0 0 0 0 0 0 0 0 0 0 0 0 0 0 0
0 0 0 0 0 0 0 0 0 0 0 0 0 0 0 0 0 0 0 0 0 0 0 0 0 0 0 0 0 0 0 0 0 0 0 0 0 0 0 0 0 0 0 0 0 0 0 0 0 0 0 0 0 0
0 0 0 0 0 0 0 0 0 0 0 0 0 0 0 0 0 0 0 0 0 0 0 0 0 0 0 0 0 0 0 0 0 0 0 0 0 0 0 0 0 0 0 0 0 0 0 0 0 0 0 0 0 0
0 0 0 0 0 0 0 0 0 0 0 0 0 0 0 0 0 0 0 0 0 0 0 0 0 0 0 0 0 0 0 0 0 0 0 0 0 0 0 0 0 0 0 0 0 0 0 0 0 0 0 0 0 0
0 0 0 0 0 0 0 0 0 0 0 0 0 0 0 0 0 0 0 0 0 0 0 0 0 0 0 0 0 0 0 0 0 0 0 0 0 0 0 0 0 0 0 0 0 0 0 0 0 0 0 0 0 0
0 0 0 0 0 0 0 0 0 0 0 0 0 0 0 0 0 0 0 0 0 0 0 0 0 0 0 0 0 0 0 0 0 0 0 0 0 0 0 0 0 0 0 0 0 0 0 0 0 0 0 0 0 0
0 0 0 0 0 0 0 0 0 0 0 0 0 0 0 0 0 0 0 0 0 0 0 0 0 0 0 0 0 0 0 0 0 0 0 0 0 0 0 0 0 0 0 0 0 0 0 0 0 0 0 0 0 0
0 0 0 0 0 0 0 0 0 0 0 0 0 0 0 0 0 0 0 0 0 0 0 0 0 0 0 0 0 0 0 0 0 0 0 0 0 0 0 0 0 0 0 0 0 0 0 0 0 0 0 0 0 0
0 0 0 0 0 0 0 0 0 0 0 0 0 0 0 0 0 0 0 0 0 0 0 0 0 0 0 0 0 0 0 0 0 0 0 0 0 0 0 0 0 0 0 0 0 0 -0 -0 -0 0 0 0 0 0
0 0 0 0 0 0 0 0 0 0 0 0 0 0 0 0 0 0 0 0 0 0 0 0 0 0 0 0 0 0 0 0 0 0 0 0 0 0 0 0 0 0 0 0 -0 -0 -0 0 0 0 0 0 0 0
-0 -0 -0 0 0 0 0 0 0 0 0 0 0 0 0 0 0 0 0 0 0 0 0 0 0 0 0 0 0 0 0 0 0 0 0 0 0 0 0 0 0 0 0 -0 -0 -0 0 0 0 0 0 0 0 0
0 0 0 0 0 0 0 0 0 0 0 0 0 0 0 0 0 0 0 0 0 0 0 0 0 0 0 0 0 0 0 0 0 0 0 0 0 0 0 0 0 -0 -0 0 0 0 0 0 0 0 0 0 0 0
0 0 0 0 0 0 0 0 0 0 0 0 0 0 0 0 -0 0 0 0 0 0 0 0 0 0 0 0 0 0 0 0 0 0 0 0 0 0 0 -0 0 0 0 0 0 0 0 0 0 0 0 0 0 0
0 0 0 0 0 0 0 0 0 0 0 0 -0 -0 -0 -0 -0 0 0 0 0 0 0 0 0 0 0 0 0 0 0 0 0 0 0 0 0 0 0 0 0 0 0 0 0 0 0 0 0 0 0 0 0 0
0 0 0 0 -0 0 0 0 0 0 0 0 -0 -0 -0 -0 -0 0 0 0 0 0 0 0 0 0 0 0 0 0 0 0 0 0 0 0 0 0 0 0 0 0 0 0 0 0 0 0 0 0 0 0 0 0
0 0 0 0 -0 0 0 0 0 0 0 0 -0 -0 -0 -0 -0 0 0 0 0 0 0 0 0 0 0 0 0 0 0 0 0 0 0 0 0 0 0 0 0 0 0 0 0 0 0 0 0 0 0 0 0 0
0 0 0 0 0 0 0 0 0 0 0 -0 0 -0 0 0 0 0 0 0 0 0 0 0 0 0 0 0 0 0 0 0 0 0 0 0 0 0 0 0 0 0 0 0 0 0 0 0 0 0 0 0 0 0
0 0 0 0 0 0 0 0 -0 -0 0 0 0 0 0 0 0 0 0 0 0 0 0 0 0 0 0 0 0 0 0 0 0 0 0 0 0 0 0 0 0 0 0 0 0 0 0 0 0 0 0 0 0 0
0 0 0 0 0 0 0 0 -0 0 0 0 0 0 0 0 0 0 0 0 0 0 0 0 0 0 0 0 0 0 0 0 0 0 0 0 0 0 0 0 0 0 0 0 0 0 0 0 0 0 0 0 0 0
0 0 0 0 0 0 0 0 0 0 0 0 0 0 0 0 0 0 0 0 0 0 0 0 0 0 0 0 0 0 0 0 0 0 0 0 0 0 0 0 0 0 0 0 0 0 0 0 0 0 0 0 0 0
0 -0 -0 0 0 0 0 0 0 0 0 0 0 -0 0 0 0 0 0 0 0 0 0 0 0 0 0 0 0 0 0 0 0 0 0 0 0 0 0 0 0 0 0 0 0 0 0 0 0 0 0 0 0 0
-0 0 0 0 0 0 0 0 0 0 0 0 0 0 0 -0 0 0 0 0 0 0 0 0 0 0 0 0 0 0 0 0 0 0 0 0 0 0 0 0 0 0 0 0 0 0 0 0 0 0 0 0 0 0
0 0 -0 -0 -0 0 0 0 0 0 0 0 0 -0 0 0 0 0 0 0 0 0 0 0 0 0 0 0 0 0 0 0 0 0 0 0 0 0 0 0 0 0 0 0 0 0 0 0 0 0 0 0 0 0
0 0 0 0 0 0 0 0 0 0 0 -0 -0 -0 -0 0 0 0 0 0 0 0 0 0 0 0 0 0 0 0 0 0 0 0 0 0 0 0 0 0 0 0 0 0 0 0 0 0 0 0 0 0 0 0
0 0 0 0 0 0 0 0 -0 -0 -0 -0 -0 -0 -0 0 0 0 0 0 0 0 0 0 0 0 0 0 0 0 0 0 0 0 0 0 0 0 0 0 0 0 0 0 0 0 0 0 0 0 0 0 0 0
0 0 0 0 0 0 -0 -0 -0 -0 -0 -0 -0 -0 0 0 0 0 0 0 0 0 0 0 0 0 0 0 0 0 0 0 0 0 0 0 0 0 0 0 0 0 0 0 0 0 0 0 0 0 0 0 0 0
0 -0 -0 -0 0 -0 -0 -0 -0 -0 0 0 0 0 0 0 0 0 0 0 0 0 0 0 0 0 0 0 0 0 0 0 0 0 0 0 0 0 0 0 0 0 0 0 0 0 0 0 0 0 0 0 0 0
Wind_Speed_500mb
32 33 33 34 31 33 33 35 32 31 32 29 26 25 23 25 21 20 14 9 22 11 42 41 30 12 11 5 3 3 3 6 4 4 4 5 6 5 5 2 3 4 4 4 3 4 3 4 7 0 6 8 5 6
34 33 33 34 33 33 32 34 34 31 31 29 26 25 23 24 24 20 17 24 28 25 34 54 61 60 45 32 14 7 6 3 8 6 4 4 5 6 4 3 4 5 5 1 8 2 6 12 12 8 1 1 6 7
35 35 34 35 34 34 32 33 34 32 31 31 26 25 24 23 26 26 27 27 33 21 46 24 10 11 32 41 45 17 13 12 9 10 9 4 7 7 7 7 6 7 7 5 5 3 5 5 5 9 13 16 14 15
36 36 35 36 36 33 32 33 35 34 31 30 27 25 25 25 26 30 33 32 34 18 11 14 16 11 9 17 22 44 21 7 5 11 5 5 5 10 3 2 6 3 18 8 5 5 14 11 13 18 26 28 24 20
37 37 36 36 35 33 32 33 35 36 32 30 28 25 25 27 27 30 35 37 22 20 10 28 59 25 16 37 38 36 47 44 6 4 6 5 7 7 3 2 8 17 10 9 6 20 7 8 11 16 19 21 19 17
37 36 36 37 35 33 33 33 36 37 33 30 28 26 24 27 24 22 10 5 23 19 9 9 15 14 8 12 28 48 47 37 15 8 1 3 5 3 5 6 5 17 17 14 10 16 19 24 20 17 21 22 20 18
35 36 35 35 35 33 33 34 36 37 33 29 28 26 24 27 27 20 12 11 18 5 7 15 13 8 9 9 17 16 26 21 15 10 6 10 6 7 6 9 8 20 14 15 21 32 19 15 16 22 21 23 20 22
34 34 34 34 34 34 34 34 36 36 32 27 27 26 26 28 33 35 25 26 36 17 12 7 10 12 3 5 7 16 19 18 16 13 13 14 24 12 9 2 4 7 12 14 20 26 15 31 27 24 20 18 17 18
34 36 36 35 33 33 33 34 36 34 28 24 24 23 27 27 22 18 15 17 15 23 7 8 6 4 6 3 7 8 12 7 10 8 8 11 6 10 3 5 1 9 10 16 20 25 30 31 28 25 20 20 19 19
38 41 38 35 33 32 32 32 34 27 20 18 18 10 8 8 13 10 8 9 17 18 16 13 9 8 6 1 3 6 4 6 8 5 14 3 5 6 6 1 7 5 11 26 36 29 27 30 28 28 27 24 23 17
41 40 35 31 31 30 30 29 25 15 9 6 5 8 10 10 10 9 7 12 13 10 18 19 40 25 14 8 2 9 5 6 7 8 8 7 5 7 9 15 16 21 23 23 26 30 30 29 29 25 22 20 18 13
39 36 33 32 30 31 28 26 13 5 7 9 18 31 19 9 10 8 8 8 11 9 14 12 15 25 12 18 15 10 5 6 7 20 8 6 6 22 23 28 31 36 39 43 35 34 29 25 23 19 19 18 9 12
36 33 32 31 34 33 26 20 19 10 13 17 8 8 7 6 7 10 15 9 7 9 11 12 7 8 11 16 8 7 10 6 25 6 4 4 28 28 29 32 35 33 33 34 33 27 25 24 17 16 15 7 6 7
34 33 34 38 37 30 22 21 18 7 9 8 7 10 11 9 12 11 7 7 14 4 7 7 5 7 4 7 2 5 4 9 7 8 5 5 28 32 30 30 31 30 29 29 28 20 21 22 20 13 9 6 3 10
36 38 37 36 32 25 24 25 20 13 9 9 8 10 14 18 16 18 20 16 16 11 6 4 6 5 2 6 2 5 9 2 6 5 5 26 34 33 32 32 32 28 22 20 19 22 21 18 17 15 11 6 7 11
49 45 49 40 32 30 32 27 17 19 9 10 14 11 17 16 14 10 16 12 8 8 7 6 6 6 4 2 6 6 8 8 9 7 28 33 34 33 31 28 25 22 22 24 22 19 14 10 10 8 7 8 8 12
35 50 44 25 27 38 37 21 20 12 11 10 15 20 30 26 22 13 14 12 13 5 6 5 7 4 7 5 4 6 5 5 25 47 36 31 31 29 28 25 22 22 20 20 15 8 4 7 7 6 9 12 17 22
55 44 27 22 41 44 31 21 13 11 15 20 13 9 10 12 15 9 15 16 5 2 4 5 6 6 5 4 4 5 12 32 42 44 36 28 27 23 19 16 19 20 19 14 7 2 7 9 10 13 15 20 25 26
54 41 38 46 59 38 21 17 14 11 26 15 15 11 3 6 16 14 13 13 19 16 11 10 9 5 3 4 15 27 29 33 44 37 31 22 18 17 17 17 17 16 13 6 4 9 13 16 20 22 22 24 28 28
47 44 34 57 64 15 10 12 20 14 11 10 14 15 8 6 9 18 23 21 18 11 16 9 7 9 9 25 35 38 35 35 35 29 22 20 11 7 12 14 14 11 6 6 7 10 16 20 22 22 23 25 26 30
48 37 39 48 53 22 9 12 19 15 9 10 20 15 8 13 16 20 20 20 18 13 10 13 21 34 38 42 38 34 28 20 18 16 14 13 10 15 19 15 9 6 3 6 13 19 23 24 24 23 21 24 30 37
40 46 44 54 19 15 17 20 15 8 12 16 16 9 6 8 13 8 8 22 12 14 11 26 40 42 43 41 35 30 26 20 18 15 14 13 18 18 13 8 5 6 10 14 18 25 29 26 23 20 24 31 37 39
55 48 21 20 18 15 15 20 15 11 3 17 16 8 10 7 4 6 12 12 12 22 27 31 35 39 46 39 33 30 25 20 22 20 16 12 10 7 4 1 6 10 15 21 28 30 25 22 19 24 32 37 40 41
41 24 16 20 26 10 10 15 13 10 6 8 6 8 6 7 9 10 7 7 15 22 30 39 40 43 38 31 33 31 29 26 23 17 15 12 7 1 2 5 12 18 23 30 25 22 17 22 31 34 36 38 38 41
11 18 13 15 16 12 10 9 12 8 12 8 10 9 10 10 5 6 5 8 24 33 33 33 30 26 28 28 24 23 25 21 17 13 10 7 7 4 6 12 16 20 23 21 22 23 26 32 36 37 39 40 43 46
12 13 6 3 4 2 7 5 4 6 6 6 8 10 6 7 7 7 5 18 28 30 29 25 25 23 23 20 19 16 17 19 17 12 10 7 7 8 9 14 19 22 22 23 26 30 34 37 39 42 43 44 47 46
5 5 7 12 4 6 9 11 11 13 9 6 6 7 5 8 7 5 18 21 27 28 24 22 17 13 18 17 14 15 15 13 13 11 8 7 12 14 11 16 20 22 29 30 29 31 36 40 43 45 46 45 42 41
10 16 8 12 15 24 8 9 9 9 6 8 5 9 7 6 5 12 25 31 29 28 28 26 21 17 16 14 13 14 14 15 12 13 14 15 20 17 15 20 24 30 32 32 36 36 37 41 43 43 42 43 43 41
8 6 12 23 15 15 18 16 12 9 9 5 6 6 8 10 28 45 38 31 31 28 27 24 20 15 14 13 13 14 15 12 10 13 16 20 20 15 18 23 28 30 32 35 38 41 43 45 41 37 37 37 39 37
7 9 12 17 12 13 18 16 15 13 13 18 25 51 59 54 46 41 40 35 27 23 22 20 20 16 14 10 10 12 14 10 10 14 20 24 20 22 25 28 29 33 35 36 35 36 38 37 35 33 35 35 34 37
11 13 15 18 13 26 39 48 55 59 61 61 51 57 45 40 41 38 30 26 24 24 22 20 17 16 12 8 6 7 9 9 14 21 22 18 21 27 26 31 36 34 30 32 34 34 35 35 33 34 36 38 38 39
12 12 20 12 25 26 28 28 34 45 42 45 42 43 38 26 14 17 25 23 21 18 17 16 13 11 8 4 5 6 9 14 20 22 20 19 18 24 32 34 28 27 28 29 29 31 33 34 35 36 37 38 40 40
57 62 53 35 16 11 11 13 12 13 13 12 9 9 9 7 8 12 18 16 13 9 10 10 11 13 9 5 4 7 12 17 21 22 18 22 28 31 28 28 30 27 26 28 31 32 34 36 37 38 39 40 41 41
Wind_Direction_500mb
284 290 295 301 307 308 310 312 314 311 311 313 311 308 308 313 321 335 340 344 346 289 287 276 269 239 249 244 255 14 263 191 153 148 185 176 217 197 233 218 231 239 226 204 164 226 197 5 280 359 7 326 334 50
278 283 292 297 303 305 307 308 307 309 307 307 306 302 299 305 310 317 323 321 320 290 273 287 278 271 255 237 274 290 287 241 191 120 186 146 194 188 218 251 187 229 238 275 223 327 330 297 262 302 291 40 50 60
275 277 285 293 298 301 303 304 303 306 304 302 300 297 293 297 303 307 307 320 328 306 308 286 294 237 236 237 238 220 240 221 200 182 143 134 233 174 201 221 192 210 180 233 240 166 284 51 106 142 126 117 101 94
271 274 277 286 293 296 298 301 301 302 302 298 296 293 289 287 292 300 304 310 309 298 285 286 313 294 248 225 240 230 215 201 190 176 160 171 226 205 245 25 239 134 162 192 238 196 137 109 112 119 118 112 104 92
266 269 272 282 288 291 292 296 300 301 300 295 292 290 287 285 285 293 296 299 291 224 282 289 301 291 231 236 239 230 225 225 247 253 207 216 139 173 146 235 232 188 175 192 214 173 190 125 136 146 134 114 108 105
263 268 271 275 281 285 287 292 299 302 299 293 289 286 285 286 288 309 293 246 340 241 289 292 297 291 288 229 218 217 221 220 213 216 248 66 58 325 240 237 205 192 192 175 159 155 145 135 127 121 119 113 108 102
260 267 270 272 276 281 283 289 297 302 297 290 286 283 282 283 280 270 254 283 334 51 297 293 286 270 300 207 189 183 199 200 189 173 143 131 63 351 237 249 177 192 182 183 151 144 132 158 129 119 120 114 106 92
261 265 268 271 275 279 279 287 296 301 297 288 286 281 278 275 278 275 263 261 264 254 265 274 277 300 233 194 144 155 159 169 183 171 176 188 135 190 250 261 281 211 171 173 189 204 193 153 134 121 114 106 99 83
259 264 269 270 273 274 278 286 296 299 292 287 286 286 285 260 253 247 261 266 230 213 264 231 274 303 334 119 127 149 164 164 178 189 206 158 137 217 207 285 342 170 180 150 129 137 136 129 119 107 91 71 66 71
256 263 265 267 267 268 277 286 297 293 284 287 295 277 245 221 206 286 244 206 189 206 226 248 242 259 323 54 129 158 186 169 186 157 135 187 190 97 24 42 205 197 178 156 135 127 123 107 97 85 79 72 58 44
254 257 258 258 264 269 278 291 293 287 284 294 266 254 259 246 270 223 221 203 175 225 214 228 226 239 252 247 262 208 180 184 211 165 202 183 216 144 102 88 119 139 149 150 140 123 112 114 108 93 77 64 44 34
251 251 252 258 265 269 276 285 245 248 261 270 285 294 281 218 212 229 212 174 210 236 200 201 223 205 225 204 209 185 211 195 225 146 171 200 113 128 107 100 101 116 126 123 122 116 104 87 75 69 66 39 15 12
245 247 254 260 267 272 271 256 206 230 281 288 265 262 235 188 214 213 198 209 214 217 201 199 193 171 186 199 207 193 213 204 134 180 199 60 130 131 120 114 109 112 117 114 110 105 102 97 76 46 35 54 28 22
242 248 252 262 269 267 246 217 180 205 260 252 240 278 215 209 232 207 225 218 228 226 174 205 157 180 170 173 199 219 89 160 186 192 209 102 131 127 128 124 123 115 106 98 91 84 66 61 62 61 64 97 33 355
249 257 258 261 261 246 209 182 178 216 237 249 225 239 231 244 278 286 286 276 267 268 225 202 137 163 120 168 169 132 185 203 12 34 51 121 136 140 129 127 125 120 110 89 76 67 73 70 53 40 29 8 340 333
253 250 250 253 248 210 173 171 201 211 243 241 232 258 259 278 290 309 321 286 276 244 201 205 159 165 170 180 169 176 174 165 153 113 133 149 142 138 133 129 119 103 85 76 89 90 76 51 23 16 360 348 319 319
236 237 249 239 212 175 163 187 201 214 240 237 243 253 269 280 282 303 313 292 299 248 204 218 187 95 122 145 118 3 10 48 127 122 144 151 134 126 123 116 105 101 107 106 112 104 57 360 350 332 329 326 320 313
219 225 189 186 170 163 181 203 211 233 244 248 248 289 257 297 302 303 338 330 328 334 62 75 77 70 51 100 113 104 95 103 126 128 130 126 122 114 102 99 117 129 134 137 135 360 318 303 307 313 311 315 322 325
209 183 172 167 166 168 175 204 219 251 238 251 255 240 134 78 45 27 26 59 82 94 90 51 60 51 59 83 118 118 122 122 123 117 116 118 119 118 122 126 131 143 152 160 242 280 287 296 300 293 300 309 315 317
178 165 167 174 174 196 211 211 205 247 249 222 180 158 131 108 46 23 36 53 53 54 54 43 35 355 66 109 128 127 131 127 119 120 124 133 123 144 136 146 146 148 172 228 281 318 325 323 321 297 299 308 310 312
168 171 169 183 200 234 258 214 213 236 234 173 145 139 114 84 56 19 13 26 56 36 64 66 87 106 109 111 112 116 115 117 121 114 129 154 154 164 159 149 135 120 75 11 351 338 335 326 320 313 306 308 310 314
175 169 167 182 195 218 254 232 230 225 200 162 133 117 100 71 50 6 30 47 60 32 90 114 113 112 107 106 107 100 96 101 100 100 113 116 134 147 148 133 94 30 2 347 337 330 326 323 316 306 306 311 316 315
167 168 150 174 211 225 251 211 210 180 141 164 129 104 73 102 143 63 76 58 78 102 124 123 123 118 110 106 99 93 89 91 97 91 94 111 131 144 139 24 337 348 336 329 328 326 323 323 322 317 314 315 317 318
151 160 189 202 207 261 247 201 175 142 180 192 86 98 135 128 100 73 76 70 112 134 130 126 128 122 115 107 95 87 79 71 74 82 90 76 61 122 261 336 338 336 329 326 330 332 331 325 323 323 321 321 321 319
180 208 203 216 183 216 228 162 125 161 210 156 132 133 136 144 94 71 85 125 142 142 140 140 134 128 116 105 97 90 77 69 65 67 73 76 47 21 344 338 342 341 340 340 339 332 328 327 325 324 322 320 317 317
220 199 210 253 197 293 10 126 116 137 119 89 76 96 93 83 73 70 89 157 150 152 156 151 145 131 119 111 104 88 72 62 56 68 70 70 42 6 350 346 346 348 346 339 332 327 327 327 325 324 322 320 319 320
266 94 75 43 36 16 48 25 37 50 63 70 104 123 118 75 76 81 136 143 143 149 153 158 143 108 120 117 96 74 67 59 56 73 72 33 11 2 354 347 342 338 342 339 332 326 324 324 323 322 321 321 322 322
32 11 54 32 58 41 51 39 36 34 39 360 53 45 69 61 99 137 142 137 130 130 133 135 127 112 96 81 78 71 54 53 47 26 12 6 355 337 329 330 333 332 331 333 330 327 325 322 322 321 322 321 322 322
81 93 90 64 64 51 33 21 11 7 350 20 93 89 95 85 124 132 131 131 131 130 125 117 105 79 73 84 77 55 43 42 19 2 353 346 344 343 326 325 331 332 330 329 328 325 325 326 325 325 326 325 323 326
77 56 92 51 53 40 20 21 33 39 71 91 101 110 108 116 120 122 122 122 117 108 103 97 93 83 83 85 67 38 23 19 358 352 340 334 327 326 327 327 327 329 329 328 329 328 330 332 331 333 331 332 334 332
86 79 75 73 79 85 83 81 81 84 91 96 106 107 111 118 121 123 116 104 97 95 92 86 75 60 62 58 33 19 12 360 343 343 340 333 321 320 325 326 327 329 331 333 334 334 336 336 336 336 337 337 336 338
49 94 118 107 120 117 96 75 76 86 90 95 98 104 107 100 91 138 130 115 103 92 81 74 63 46 41 6 345 343 349 347 347 349 345 337 334 329 329 332 337 338 339 343 345 346 347 345 343 340 337 336 336 336
100 104 107 106 116 129 141 107 99 99 90 99 95 97 87 93 121 157 161 152 137 110 81 63 51 34 17 355 331 338 345 346 349 350 346 336 332 335 344 348 346 347 347 346 344 346 347 345 344 343 341 339 338 337
Wind_Speed_850mb
32 33 33 34 31 33 33 35 32 31 32 29 26 25 23 25 21 20 14 9 22 11 42 41 30 12 11 5 3 3 3 6 4 4 4 5 6 5 5 2 3 4 4 4 3 4 3 4 7 0 6 8 5 6
34 33 33 34 33 33 32 34 34 31 31 29 26 25 23 24 24 20 17 24 28 25 34 54 61 60 45 32 14 7 6 3 8 6 4 4 5 6 4 3 4 5 5 1 8 2 6 12 12 8 1 1 6 7
35 35 34 35 34 34 32 33 34 32 31 31 26 25 24 23 26 26 27 27 33 21 46 24 10 11 32 41 45 17 13 12 9 10 9 4 7 7 7 7 6 7 7 5 5 3 5 5 5 9 13 16 14 15
36 36 35 36 36 33 32 33 35 34 31 30 27 25 25 25 26 30 33 32 34 18 11 14 16 11 9 17 22 44 21 7 5 11 5 5 5 10 3 2 6 3 18 8 5 5 14 11 13 18 26 28 24 20
37 37 36 36 35 33 32 33 35 36 32 30 28 25 25 27 27 30 35 37 22 20 10 28 59 25 16 37 38 36 47 44 6 4 6 5 7 7 3 2 8 17 10 9 6 20 7 8 11 16 19 21 19 17
37 36 36 37 35 33 33 33 36 37 33 30 28 26 24 27 24 22 10 5 23 19 9 9 15 14 8 12 28 48 47 37 15 8 1 3 5 3 5 6 5 17 17 14 10 16 19 24 20 17 21 22 20 18
35 36 35 35 35 33 33 34 36 37 33 29 28 26 24 27 27 20 12 11 18 5 7 15 13 8 9 9 17 16 26 21 15 10 6 10 6 7 6 9 8 20 14 15 21 32 19 15 16 22 21 23 20 22
34 34 34 34 34 34 34 34 36 36 32 27 27 26 26 28 33 35 25 26 36 17 12 7 10 12 3 5 7 16 19 18 16 13 13 14 24 12 9 2 4 7 12 14 20 26 15 31 27 24 20 18 17 18
34 36 36 35 33 33 33 34 36 34 28 24 24 23 27 27 22 18 15 17 15 23 7 8 6 4 6 3 7 8 12 7 10 8 8 11 6 10 3 5 1 9 10 16 20 25 30 31 28 25 20 20 19 19
38 41 38 35 33 32 32 32 34 27 20 18 18 10 8 8 13 10 8 9 17 18 16 13 9 8 6 1 3 6 4 6 8 5 14 3 5 6 6 1 7 5 11 26 36 29 27 30 28 28 27 24 23 17
41 40 35 31 31 30 30 29 25 15 9 6 5 8 10 10 10 9 7 12 13 10 18 19 40 25 14 8 2 9 5 6 7 8 8 7 5 7 9 15 16 21 23 23 26 30 30 29 29 25 22 20 18 13
39 36 33 32 30 31 28 26 13 5 7 9 18 31 19 9 10 8 8 8 11 9 14 12 15 25 12 18 15 10 5 6 7 20 8 6 6 22 23 28 31 36 39 43 35 34 29 25 23 19 19 18 9 12
36 33 32 31 34 33 26 20 19 10 13 17 8 8 7 6 7 10 15 9 7 9 11 12 7 8 11 16 8 7 10 6 25 6 4 4 28 28 29 32 35 33 33 34 33 27 25 24 17 16 15 7 6 7
34 33 34 38 37 30 22 21 18 7 9 8 7 10 11 9 12 11 7 7 14 4 7 7 5 7 4 7 2 5 4 9 7 8 5 5 28 32 30 30 31 30 29 29 28 20 21 22 20 13 9 6 3 10
36 38 37 36 32 25 24 25 20 13 9 9 8 10 14 18 16 18 20 16 16 11 6 4 6 5 2 6 2 5 9 2 6 5 5 26 34 33 32 32 32 28 22 20 19 22 21 18 17 15 11 6 7 11
49 45 49 40 32 30 32 27 17 19 9 10 14 11 17 16 14 10 16 12 8 8 7 6 6 6 4 2 6 6 8 8 9 7 28 33 34 33 31 28 25 22 22 24 22 19 14 10 10 8 7 8 8 12
35 50 44 25 27 38 37 21 20 12 11 10 15 20 30 26 22 13 14 12 13 5 6 5 7 4 7 5 4 6 5 5 25 47 36 31 31 29 28 25 22 22 20 20 15 8 4 7 7 6 9 12 17 22
55 44 27 22 41 44 31 21 13 11 15 20 13 9 10 12 15 9 15 16 5 2 4 5 6 6 5 4 4 5 12 32 42 44 36 28 27 23 19 16 19 20 19 14 7 2 7 9 10 13 15 20 25 26
54 41 38 46 59 38 21 17 14 11 26 15 15 11 3 6 16 14 13 13 19 16 11 10 9 5 3 4 15 27 29 33 44 37 31 22 18 17 17 17 17 16 13 6 4 9 13 16 20 22 22 24 28 28
47 44 34 57 64 15 10 12 20 14 11 10 14 15 8 6 9 18 23 21 18 11 16 9 7 9 9 25 35 38 35 35 35 29 22 20 11 7 12 14 14 11 6 6 7 10 16 20 22 22 23 25 26 30
48 37 39 48 53 22 9 12 19 15 9 10 20 15 8 13 16 20 20 20 18 13 10 13 21 34 38 42 38 34 28 20 18 16 14 13 10 15 19 15 9 6 3 6 13 19 23 24 24 23 21 24 30 37
40 46 44 54 19 15 17 20 15 8 12 16 16 9 6 8 13 8 8 22 12 14 11 26 40 42 43 41 35 30 26 20 18 15 14 13 18 18 13 8 5 6 10 14 18 25 29 26 23 20 24 31 37 39
55 48 21 20 18 15 15 20 15 11 3 17 16 8 10 7 4 6 12 12 12 22 27 31 35 39 46 39 33 30 25 20 22 20 16 12 10 7 4 1 6 10 15 21 28 30 25 22 19 24 32 37 40 41
41 24 16 20 26 10 10 15 13 10 6 8 6 8 6 7 9 10 7 7 15 22 30 39 40 43 38 31 33 31 29 26 23 17 15 12 7 1 2 5 12 18 23 30 25 22 17 22 31 34 36 38 38 41
11 18 13 15 16 12 10 9 12 8 12 8 10 9 10 10 5 6 5 8 24 33 33 33 30 26 28 28 24 23 25 21 17 13 10 7 7 4 6 12 16 20 23 21 22 23 26 32 36 37 39 40 43 46
12 13 6 3 4 2 7 5 4 6 6 6 8 10 6 7 7 7 5 18 28 30 29 25 25 23 23 20 19 16 17 19 17 12 10 7 7 8 9 14 19 22 22 23 26 30 34 37 39 42 43 44 47 46
5 5 7 12 4 6 9 11 11 13 9 6 6 7 5 8 7 5 18 21 27 28 24 22 17 13 18 17 14 15 15 13 13 11 8 7 12 14 11 16 20 22 29 30 29 31 36 40 43 45 46 45 42 41
10 16 8 12 15 24 8 9 9 9 6 8 5 9 7 6 5 12 25 31 29 28 28 26 21 17 16 14 13 14 14 15 12 13 14 15 20 17 15 20 24 30 32 32 36 36 37 41 43 43 42 43 43 41
8 6 12 23 15 15 18 16 12 9 9 5 6 6 8 10 28 45 38 31 31 28 27 24 20 15 14 13 13 14 15 12 10 13 16 20 20 15 18 23 28 30 32 35 38 41 43 45 41 37 37 37 39 37
7 9 12 17 12 13 18 16 15 13 13 18 25 51 59 54 46 41 40 35 27 23 22 20 20 16 14 10 10 12 14 10 10 14 20 24 20 22 25 28 29 33 35 36 35 36 38 37 35 33 35 35 34 37
11 13 15 18 13 26 39 48 55 59 61 61 51 57 45 40 41 38 30 26 24 24 22 20 17 16 12 8 6 7 9 9 14 21 22 18 21 27 26 31 36 34 30 32 34 34 35 35 33 34 36 38 38 39
12 12 20 12 25 26 28 28 34 45 42 45 42 43 38 26 14 17 25 23 21 18 17 16 13 11 8 4 5 6 9 14 20 22 20 19 18 24 32 34 28 27 28 29 29 31 33 34 35 36 37 38 40 40
57 62 53 35 16 11 11 13 12 13 13 12 9 9 9 7 8 12 18 16 13 9 10 10 11 13 9 5 4 7 12 17 21 22 18 22 28 31 28 28 30 27 26 28 31 32 34 36 37 38 39 40 41 41
Wind_Direction_850mb
284 290 295 301 307 308 310 312 314 311 311 313 311 308 308 313 321 335 340 344 346 289 287 276 269 239 249 244 255 14 263 191 153 148 185 176 217 197 233 218 231 239 226 204 164 226 197 5 280 359 7 326 334 50
278 283 292 297 303 305 307 308 307 309 307 307 306 302 299 305 310 317 323 321 320 290 273 287 278 271 255 237 274 290 287 241 191 120 186 146 194 188 218 251 187 229 238 275 223 327 330 297 262 302 291 40 50 60
275 277 285 293 298 301 303 304 303 306 304 302 300 297 293 297 303 307 307 320 328 306 308 286 294 237 236 237 238 220 240 221 200 182 143 134 233 174 201 221 192 210 180 233 240 166 284 51 106 142 126 117 101 94
271 274 277 286 293 296 298 301 301 302 302 298 296 293 289 287 292 300 304 310 309 298 285 286 313 294 248 225 240 230 215 201 190 176 160 171 226 205 245 25 239 134 162 192 238 196 137 109 112 119 118 112 104 92
266 269 272 282 288 291 292 296 300 301 300 295 292 290 287 285 285 293 296 299 291 224 282 289 301 291 231 236 239 230 225 225 247 253 207 216 139 173 146 235 232 188 175 192 214 173 190 125 136 146 134 114 108 105
263 268 271 275 281 285 287 292 299 302 299 293 289 286 285 286 288 309 293 246 340 241 289 292 297 291 288 229 218 217 221 220 213 216 248 66 58 325 240 237 205 192 192 175 159 155 145 135 127 121 119 113 108 102
260 267 270 272 276 281 283 289 297 302 297 290 286 283 282 283 280 270 254 283 334 51 297 293 286 270 300 207 189 183 199 200 189 173 143 131 63 351 237 249 177 192 182 183 151 144 132 158 129 119 120 114 106 92
261 265 268 271 275 279 279 287 296 301 297 288 286 281 278 275 278 275 263 261 264 254 265 274 277 300 233 194 144 155 159 169 183 171 176 188 135 190 250 261 281 211 171 173 189 204 193 153 134 121 114 106 99 83
259 264 269 270 273 274 278 286 296 299 292 287 286 286 285 260 253 247 261 266 230 213 264 231 274 303 334 119 127 149 164 164 178 189 206 158 137 217 207 285 342 170 180 150 129 137 136 129 119 107 91 71 66 71
256 263 265 267 267 268 277 286 297 293 284 287 295 277 245 221 206 286 244 206 189 206 226 248 242 259 323 54 129 158 186 169 186 157 135 187 190 97 24 42 205 197 178 156 135 127 123 107 97 85 79 72 58 44
254 257 258 258 264 269 278 291 293 287 284 294 266 254 259 246 270 223 221 203 175 225 214 228 226 239 252 247 262 208 180 184 211 165 202 183 216 144 102 88 119 139 149 150 140 123 112 114 108 93 77 64 44 34
251 251 252 258 265 269 276 285 245 248 261 270 285 294 281 218 212 229 212 174 210 236 200 201 223 205 225 204 209 185 211 195 225 146 171 200 113 128 107 100 101 116 126 123 122 116 104 87 75 69 66 39 15 12
245 247 254 260 267 272 271 256 206 230 281 288 265 262 235 188 214 213 198 209 214 217 201 199 193 171 186 199 207 193 213 204 134 180 199 60 130 131 120 114 109 112 117 114 110 105 102 97 76 46 35 54 28 22
242 248 252 262 269 267 246 217 180 205 260 252 240 278 215 209 232 207 225 218 228 226 174 205 157 180 170 173 199 219 89 160 186 192 209 102 131 127 128 124 123 115 106 98 91 84 66 61 62 61 64 97 33 355
249 257 258 261 261 246 209 182 178 216 237 249 225 239 231 244 278 286 286 276 267 268 225 202 137 163 120 168 169 132 185 203 12 34 51 121 136 140 129 127 125 120 110 89 76 67 73 70 53 40 29 8 340 333
253 250 250 253 248 210 173 171 201 211 243 241 232 258 259 278 290 309 321 286 276 244 201 205 159 165 170 180 169 176 174 165 153 113 133 149 142 138 133 129 119 103 85 76 89 90 76 51 23 16 360 348 319 319
236 237 249 239 212 175 163 187 201 214 240 237 243 253 269 280 282 303 313 292 299 248 204 218 187 95 122 145 118 3 10 48 127 122 144 151 134 126 123 116 105 101 107 106 112 104 57 360 350 332 329 326 320 313
219 225 189 186 170 163 181 203 211 233 244 248 248 289 257 297 302 303 338 330 328 334 62 75 77 70 51 100 113 104 95 103 126 128 130 126 122 114 102 99 117 129 134 137 135 360 318 303 307 313 311 315 322 325
209 183 172 167 166 168 175 204 219 251 238 251 255 240 134 78 45 27 26 59 82 94 90 51 60 51 59 83 118 118 122 122 123 117 116 118 119 118 122 126 131 143 152 160 242 280 287 296 300 293 300 309 315 317
178 165 167 174 174 196 211 211 205 247 249 222 180 158 131 108 46 23 36 53 53 54 54 43 35 355 66 109 128 127 131 127 119 120 124 133 123 144 136 146 146 148 172 228 281 318 325 323 321 297 299 308 310 312
168 171 169 183 200 234 258 214 213 236 234 173 145 139 114 84 56 19 13 26 56 36 64 66 87 106 109 111 112 116 115 117 121 114 129 154 154 164 159 149 135 120 75 11 351 338 335 326 320 313 306 308 310 314
175 169 167 182 195 218 254 232 230 225 200 162 133 117 100 71 50 6 30 47 60 32 90 114 113 112 107 106 107 100 96 101 100 100 113 116 134 147 148 133 94 30 2 347 337 330 326 323 316 306 306 311 316 315
167 168 150 174 211 225 251 211 210 180 141 164 129 104 73 102 143 63 76 58 78 102 124 123 123 118 110 106 99 93 89 91 97 91 94 111 131 144 139 24 337 348 336 329 328 326 323 323 322 317 314 315 317 318
151 160 189 202 207 261 247 201 175 142 180 192 86 98 135 128 100 73 76 70 112 134 130 126 128 122 115 107 95 87 79 71 74 82 90 76 61 122 261 336 338 336 329 326 330 332 331 325 323 323 321 321 321 319
180 208 203 216 183 216 228 162 125 161 210 156 132 133 136 144 94 71 85 125 142 142 140 140 134 128 116 105 97 90 77 69 65 67 73 76 47 21 344 338 342 341 340 340 339 332 328 327 325 324 322 320 317 317
220 199 210 253 197 293 10 126 116 137 119 89 76 96 93 83 73 70 89 157 150 152 156 151 145 131 119 111 104 88 72 62 56 68 70 70 42 6 350 346 346 348 346 339 332 327 327 327 325 324 322 320 319 320
266 94 75 43 36 16 48 25 37 50 63 70 104 123 118 75 76 81 136 143 143 149 153 158 143 108 120 117 96 74 67 59 56 73 72 33 11 2 354 347 342 338 342 339 332 326 324 324 323 322 321 321 322 322
32 11 54 32 58 41 51 39 36 34 39 360 53 45 69 61 99 137 142 137 130 130 133 135 127 112 96 81 78 71 54 53 47 26 12 6 355 337 329 330 333 332 331 333 330 327 325 322 322 321 322 321 322 322
81 93 90 64 64 51 33 21 11 7 350 20 93 89 95 85 124 132 131 131 131 130 125 117 105 79 73 84 77 55 43 42 19 2 353 346 344 343 326 325 331 332 330 329 328 325 325 326 325 325 326 325 323 326
77 56 92 51 53 40 20 21 33 39 71 91 101 110 108 116 120 122 122 122 117 108 103 97 93 83 83 85 67 38 23 19 358 352 340 334 327 326 327 327 327 329 329 328 329 328 330 332 331 333 331 332 334 332
86 79 75 73 79 85 83 81 81 84 91 96 106 107 111 118 121 123 116 104 97 95 92 86 75 60 62 58 33 19 12 360 343 343 340 333 321 320 325 326 327 329 331 333 334 334 336 336 336 336 337 337 336 338
49 94 118 107 120 117 96 75 76 86 90 95 98 104 107 100 91 138 130 115 103 92 81 74 63 46 41 6 345 343 349 347 347 349 345 337 334 329 329 332 337 338 339 343 345 346 347 345 343 340 337 336 336 336
100 104 107 106 116 129 141 107 99 99 90 99 95 97 87 93 121 157 161 152 137 110 81 63 51 34 17 355 331 338 345 346 349 350 346 336 332 335 344 348 346 347 347 346 344 346 347 345 344 343 341 339 338 337